Flag for France

Past Weather in 48°42'40"N, 2°15'22"E, France — Yesterday and Last 2 Weeks

Now
68 °F

Mostly cloudy.


Feels Like: 68 °F
Forecast: 82 / 65 °F
Wind: 8 mph from Southwest

Location: Villacoublay
Current Time: Aug 14, 2020 at 11:26:06 am
Latest Report: Aug 14, 2020 at 11:00 am
Visibility: N/A
Pressure29.98 "Hg
Humidity: 83%
Dew Point: 63 °F
Location of 48°42'40"N, 2°15'22"ELocation

Past Weather in 48°42'40"N, 2°15'22"E — Graph

°F

48°42'40"N, 2°15'22"E Temperature Yesterday

Maximum temperature yesterday: 79 °F (at 1:30 pm)
Minimum temperature yesterday: 66 °F (at 4:30 am)
Average temperature yesterday: 71 °F

High & Low Weather Summary for the Past Weeks

 TemperatureHumidityPressure
High99 °F (Jul 31, 2:00 pm)100% (Aug 14, 12:30 am)30.12 "Hg (Aug 14, 12:30 am)
Low50 °F (Aug 4, 6:30 am)18% (Aug 8, 6:30 pm)29.83 "Hg (Aug 12, 5:30 pm)
Average76 °F51%30.00 "Hg
* Reported Jul 30 10:00 am — Aug 14 10:00 am, 48°42'40"N, 2°15'22"E. Weather by CustomWeather, © 2020

Note: Actual official high and low records may vary slightly from our data, if they occured in-between our weather recording intervals... More about our weather records

48°42'40"N, 2°15'22"E Weather History for the Previous 24 Hours

Scroll right to see more
 ConditionsComfort  
Time TempWeatherWind HumidityBarometerVisibility
10:00 am
Fri, Aug 14
66 °FMostly cloudy.5 mph94%29.98 "HgN/A
9:30 am66 °FMostly cloudy.6 mph88%29.98 "HgN/A
9:00 am64 °FLow clouds.7 mph100%29.98 "Hg5 mi
8:30 am64 °FMostly cloudy.7 mph100%29.98 "Hg5 mi
8:00 am64 °FLow clouds.8 mph100%29.95 "Hg4 mi
7:30 am64 °FFog.8 mph100%29.95 "Hg3 mi
7:00 am64 °FMostly cloudy.6 mph100%29.95 "Hg4 mi
6:30 am64 °FFog.5 mph100%29.95 "Hg3 mi
6:00 am66 °FFog.6 mph94%29.95 "Hg3 mi
5:30 am66 °FLow clouds.6 mph94%29.95 "Hg4 mi
5:00 am66 °FPassing clouds.6 mph94%29.95 "Hg4 mi
4:30 am66 °FPassing clouds.6 mph94%29.95 "Hg4 mi
4:00 am66 °FLow clouds.7 mph94%29.95 "Hg4 mi
3:30 am66 °FPassing clouds.9 mph94%29.95 "HgN/A
3:00 am66 °FMostly cloudy.9 mph94%29.92 "HgN/A
2:30 am66 °FPartly cloudy.8 mph94%29.92 "HgN/A
2:00 am66 °FMostly cloudy.9 mph94%29.92 "HgN/A
1:30 am66 °FPartly cloudy.8 mph100%29.92 "HgN/A
1:00 am66 °FMostly cloudy.6 mph100%29.92 "HgN/A
12:30 am66 °FPartly cloudy.8 mph100%29.92 "HgN/A
12:00 am68 °FPassing clouds.6 mph94%29.92 "HgN/A
11:30 pm
Thu, Aug 13
68 °FRain. Fog.7 mph94%29.92 "Hg2 mi
11:00 pm68 °FPassing clouds.6 mph94%29.89 "HgN/A
10:30 pm68 °FLight rain. Passing clouds.5 mph94%29.89 "HgN/A
10:00 pm68 °FPassing clouds.5 mph94%29.89 "HgN/A
9:30 pm68 °FMostly cloudy.2 mph94%29.89 "HgN/A
9:00 pm68 °FPartly sunny.2 mph94%29.89 "HgN/A
8:30 pm68 °FBroken clouds.1 mph94%29.89 "HgN/A
8:00 pm68 °FRain. Fog.3 mph94%29.89 "Hg2 mi
7:30 pm68 °FLight rain. Fog.8 mph94%29.89 "Hg2 mi
7:00 pm75 °FPartly sunny.8 mph65%29.89 "HgN/A
6:30 pm73 °FOvercast.9 mph69%29.89 "HgN/A
6:00 pm73 °FPartly sunny.9 mph69%29.89 "HgN/A
5:30 pm75 °FBroken clouds.12 mph65%29.89 "HgN/A
5:00 pm75 °FBroken clouds.13 mph65%29.89 "HgN/A
4:30 pm75 °FBroken clouds.14 mph65%29.92 "HgN/A
4:00 pm75 °FBroken clouds.10 mph61%29.92 "HgN/A
3:30 pm75 °FOvercast.10 mph61%29.92 "HgN/A
2:30 pm79 °FPassing clouds.12 mph54%29.92 "HgN/A
2:00 pm77 °FScattered clouds.12 mph57%29.92 "HgN/A
1:30 pm79 °FPartly sunny.12 mph54%29.92 "HgN/A
1:00 pm77 °FPartly sunny.10 mph61%29.92 "HgN/A
12:30 pm77 °FScattered clouds.8 mph69%29.92 "HgN/A
12:00 pm75 °FPassing clouds.9 mph74%29.92 "HgN/A
11:30 am75 °FScattered clouds.9 mph74%29.92 "HgN/A
11:00 am73 °FScattered clouds.9 mph78%29.92 "HgN/A
Weather by CustomWeather, © 2020

See weather overview